N5481M KBKL-KCGF

Flight info

Callsign N5481M
Flight time 0h -29m
Altitude 3000
Route KLNN/N0111F040
Aircraft C172/L-SFG/C

Departure

Time 2026-05-06 22:17
Airport Burke Lakefront Airport (KBKL)

Arrival

Time 2026-05-06 21:48
Airport Cuyahoga County Airport (KCGF)
Time Latitude Longitude Altitude Speed Heading
2026-05-06 21:48 41.51308 -81.68855 588 ft 0 kts 147°
2026-05-06 22:13 41.51278 -81.68882 588 ft 9 kts 249°
2026-05-06 22:13 41.51276 -81.69016 588 ft 14 kts 250°
2026-05-06 22:13 41.51294 -81.69094 587 ft 7 kts 335°
2026-05-06 22:14 41.51328 -81.69117 587 ft 6 kts 329°
2026-05-06 22:14 41.51359 -81.69144 586 ft 7 kts 323°
2026-05-06 22:14 41.51379 -81.69163 586 ft 0 kts 327°
2026-05-06 22:15 41.51383 -81.69166 586 ft 5 kts 329°
2026-05-06 22:16 41.51434 -81.69174 585 ft 9 kts 66°
2026-05-06 22:16 41.51456 -81.69117 585 ft 0 kts 60°
2026-05-06 22:16 41.51457 -81.69115 585 ft 4 kts 62°
2026-05-06 22:16 41.51579 -81.68856 584 ft 59 kts 58°
2026-05-06 22:17 41.51846 -81.68273 712 ft 78 kts 55°
2026-05-06 22:17 41.52087 -81.67596 926 ft 84 kts 61°
2026-05-06 22:17 41.52392 -81.66892 1128 ft 92 kts 55°
2026-05-06 22:17 41.52751 -81.66127 1303 ft 103 kts 54°
2026-05-06 22:18 41.53079 -81.65282 1527 ft 101 kts 73°
2026-05-06 22:18 41.53316 -81.64444 1812 ft 101 kts 62°
2026-05-06 22:18 41.53514 -81.63456 1948 ft 115 kts 78°
2026-05-06 22:18 41.53670 -81.62430 2177 ft 110 kts 75°
2026-05-06 22:19 41.53833 -81.61432 2336 ft 116 kts 78°
2026-05-06 22:19 41.53986 -81.60407 2482 ft 108 kts 74°
2026-05-06 22:19 41.54190 -81.59340 2469 ft 122 kts 77°
2026-05-06 22:19 41.54338 -81.58265 2656 ft 118 kts 79°
2026-05-06 22:20 41.54475 -81.57130 2511 ft 129 kts 84°
2026-05-06 22:20 41.54499 -81.55931 2292 ft 129 kts 94°
2026-05-06 22:20 41.54461 -81.54804 2083 ft 118 kts 94°
2026-05-06 22:20 41.54462 -81.53697 1867 ft 123 kts 86°
2026-05-06 22:21 41.54570 -81.52527 1762 ft 128 kts 82°
2026-05-06 22:21 41.54836 -81.51320 1459 ft 135 kts 68°
2026-05-06 22:21 41.55317 -81.50362 1352 ft 110 kts 44°
2026-05-06 22:21 41.55790 -81.49762 1046 ft 87 kts 44°
2026-05-06 22:22 41.56145 -81.49216 869 ft 65 kts 46°
2026-05-06 22:22 41.56369 -81.48861 871 ft 35 kts 49°
2026-05-06 22:22 41.56481 -81.48710 867 ft 13 kts 62°
2026-05-06 22:22 41.56516 -81.48625 867 ft 9 kts 43°
2026-05-06 22:23 41.56576 -81.48542 854 ft 16 kts 53°
2026-05-06 22:23 41.56652 -81.48433 861 ft 13 kts 34°
2026-05-06 22:23 41.56703 -81.48449 867 ft 8 kts 315°
2026-05-06 22:23 41.56764 -81.48519 869 ft 17 kts 317°
2026-05-06 22:24 41.56752 -81.48640 868 ft 13 kts 222°
2026-05-06 22:24 41.56728 -81.48694 868 ft 2 kts 311°
2026-05-06 22:24 41.56734 -81.48700 868 ft 1 kts 316°